Back to catalog

FENGYUN 1C DEB

AliveSSO
NORAD 36173·DEBRIS·🇨🇳 China

Launched May 10, 1999 from Taiyuan Satellite Launch Center

Loading…

Next Passes (next 24 hours)

TLE

FreshSource: Space-Track

Epoch: Sep 11, 2026, 01:47 UTC

1 36173U 99025DSW 26254.07458631  .00000493  00000-0  20104-3 0  9994
2 36173  98.2430 199.6224 0147603 102.8327 258.9391 14.25587718629704

Track FENGYUN 1C DEB in real time with AllMySat

Download on the App Store